Regional Weather Roundup
Issued by NWS

Home | Current Version | Previous Version | Graphics & Text | Print | Product List | Glossary On
Versions: 1 2 3 4 5 6 7 8 9 10 11 12 13 14 15 16 17 18 19 20 21 22 23 24 25 26 27
000
ASUS45 KSLC 291810
RWRUT

UTAH REGIONAL WEATHER ROUNDUP
NATIONAL WEATHER SERVICE SALT LAKE CITY UT
1200 PM MDT MON AUG 29 2016

UTZ001>011-023>025-291900-

NORTHERN UTAH

CITY           SKY/WX    TMP DP  RH WIND       PRES   REMARKS
BRIGHAM CITY     N/A     81  32  17 CALM      30.24S
HILL AFB       SUNNY     81  38  21 VRB1      30.26F
LOGAN          SUNNY     75  39  27 VRB3      30.26F
OGDEN          SUNNY     83  41  22 VRB5      30.24F
PROVO AIRPORT  MOSUNNY  N/A N/A N/A VRB3      30.28S
SALT LAKE CITY MOSUNNY   88  37  16 NW7       30.21F
VERNAL         SUNNY     75  41  29 CALM      30.29F
WENDOVER       SUNNY     82  36  18 E6        30.24F
HEBER CITY     SUNNY     72  34  25 CALM      30.31F
WEST JORDAN    SUNNY     84  40  21 CALM      30.25F

$$

UTZ012>022-026-027-291900-

SOUTHERN/CENTRAL UTAH

CITY           SKY/WX    TMP DP  RH WIND       PRES   REMARKS
BLANDING       SUNNY     73  42  32 S6        30.40F
BRYCE CANYON   SUNNY     74  39  28 E9        30.43F
CEDAR CITY     SUNNY     81  41  24 N5        30.29F
DELTA          SUNNY     81  30  16 NW5       30.25F
MILFORD        NOT AVBL
MOAB/CYNLANDS  SUNNY     80  43  26 VRB3      30.21F
PRICE          SUNNY     79  35  20 CALM      30.31F
ST GEORGE      CLEAR     82  52  34 S5        30.14F

$$

REGIONAL REPORTS     COLORADO/ARIZONA

CITY           SKY/WX    TMP DP  RH WIND       PRES   REMARKS
CRAIG, CO      CLOUDY    75  35  23 N5        30.35F
GRAND JUNCTION SUNNY     77  43  29 SE5       30.26F
RIFLE          CLOUDY    66  47  50 E3        30.34S
MONTROSE       CLOUDY    68  45  43 VRB3      30.35F
CORTEZ         SUNNY     72  45  37 CALM      30.32F
PAGE, AZ       SUNNY     80  48  32 N3        30.21F
GRAND CANYON   SUNNY     76  44  32 NE16      30.37S
KINGMAN        SUNNY     89  46  22 NE3       30.13F
FLAGSTAFF      SUNNY     69  44  40 NE15      30.36S

$$

REGIONAL REPORTS    NEVADA/IDAHO/WYOMING

CITY           SKY/WX    TMP DP  RH WIND       PRES   REMARKS
LAS VEGAS, NV  MOSUNNY   94  42  16 NW6       30.03F HX  90
ELY            SUNNY     81  28  14 VRB3      30.34F
ELKO           MOSUNNY   81  31  16 VRB3      30.27F
POCATELLO, ID  SUNNY     81  41  24 VRB5      30.26F
BURLEY         LGT RAIN  80  43  26 NE12      30.20F
EVANSTON, WY   SUNNY     77  27  15 NE9       30.43F
ROCK SPRINGS   SUNNY     76  28  17 MISG      30.41F

$$




USA.gov is the U.S. government's official web portal to all federal, state and local government web resources and services.